Cabot Strait: Past 24 Hour Conditions

 

St. Anthony Airport

01:30 PM NDT 21 September 2014
This table is a summary of hourly weather conditions for the past 24 hours.
Date / Time
(NDT)
Wind(knots) Conditions Visibility(km) Pressure(kPa) Air tempC) Relative humidity(%) Dew pointC)
21 September 2014
13:30 SSW 7 Light Rain 5 101.0 12 96 11
12:30 SW 7 Light Rain 3 101.1 11 96 11
11:30 SSW 6 Mist 4 101.1 11 95 10
10:30 SW 8 Cloudy 16 101.0 12 85 9
9:30 SW 7 Cloudy 16 101.0 12 86 9
8:30 WSW 8 Cloudy 16 100.9 11 87 9
7:30 WSW 10 gust 17 Cloudy 16 100.9 11 88 9
6:30 WSW 13 Cloudy 16 100.8 11 87 9
5:30 WSW 13 gust 20 Cloudy 16 100.7 11 88 9
4:30 WSW 15 gust 23 Cloudy 16 100.7 11 85 8
3:30 WSW 17 gust 24 Cloudy 16 100.7 11 83 8
2:30 WSW 15 gust 22 Cloudy 16 100.7 11 82 8
1:30 WSW 23 gust 29 Cloudy 16 100.7 11 83 8
0:30 WSW 22 gust 32 Cloudy 16 100.6 11 85 8
20 September 2014
23:30 SW 25 gust 36 Cloudy 16 100.7 10 88 8
22:30 SW 28 gust 39 Cloudy 16 100.7 10 84 8
21:30 SW 25 gust 34 Cloudy 16 100.8 10 83 7
20:30 SW 23 gust 34 Light Rain 16 100.8 10 82 7
19:30 SW 24 gust 42 Light Rain 16 100.8 10 79 7
18:30 SW 28 gust 40 Cloudy 16 100.8 11 67 5
17:30 SW 30 gust 41 Cloudy 16 100.8 11 68 6
16:30 SW 35 gust 45 Cloudy 16 100.9 12 65 5
15:30 SW 33 gust 54 Cloudy 16 100.9 12 62 5
14:30 SW 26 gust 52 Mostly Cloudy 16 100.9 12 58 4
13:30 SW 35 gust 47 Mostly Cloudy 16 100.9 12 54 3
 
Map of Atlantic - Newfoundland marine weather areas Southwestern Grand Banks - 44138 Banquereau - 44139 Tail of the Bank - 44140 Nickerson Bank - 44251 Northeast Burgeo Bank - 44255 Blanc-Sablon Airport Cap Whittle Chevery Natashquan Airport Heath Point Miscou Island Grand Étang Ingonish Beach North Mountain St.Paul Island J.A. Douglas McCurdy Sydney Airport Charlottetown Airport East Point North Cape Argentia Bonavista Burgeo Cape Race Corner Brook Daniel's Harbour Englee Ferolle Point La Scie Port aux Basques Rocky Harbour Sagona Island St. Anthony Airport St. John's Int'l Airport St. Lawrence Stephenville Airport Twillingate Winterland Wreckhouse Cartwright Airport Mary's Harbour Grates Cove Pool's Island Marticot Island Long Pond Îles de la Madeleine Airport
Legend: buoyBuoy land stationLand Station